(322224) = 2005 YB222 = 2009 UZ85 = 2011 AA74

Discovered at Kitt Peak on 2005-12-21 by Spacewatch.

Orbit

Orbit type: Main Belt

Note: WebGL enabled browser required.

epoch2023-09-13.0
epoch JD2460200.5
perihelion date2019-08-30.85337
perihelion JD2458726.35337
argument of perihelion (°)335.64051
ascending node (°)52.75721
inclination (°)2.96804
eccentricity0.1167129
perihelion distance (AU)2.5048441
Tisserand w.r.t. Jupiter3.3
ΔV w.r.t. Earth (km/sec)10.0
semimajor axis (AU)2.8358209
mean anomaly (°)304.24702
mean daily motion (°/day)0.20638860
aphelion distance (AU)3.167
period (years)4.78
P-vector [x]0.87922708
P-vector [y]0.44514694
P-vector [z]0.16971726
Q-vector [x]-0.47461632
Q-vector [y]0.78763779
Q-vector [z]0.39289447
absolute magnitude16.29
phase slope0.15
uncertainty0
referenceMPO 779297
observations used352
oppositions16
arc length (days)10194
first opposition used1995
last opposition used2023
residual rms (arc-secs)0.76
perturbers coarse indicatorM-v
perturbers precise indicator003Ek
first observation date used1995-11-15.0
last observation date used2023-10-13.0
computer nameMPCLINUX
JD of orbit computation2456966.909019
perihelion JD uncertainty (days)1.0031E-04
argument of perihelion uncertainty (°)9.5632E-05
ascending node uncertainty (°)9.2895E-05
inclination uncertainty (°)5.2215E-06
eccentricity uncertainty 6.9418E-08
perihelion distance uncertainty (AU)2.0419E-07
Minimum Orbit Intersection Distances (in AU)
for orbit epoch: 2460200.5, reference: E2023-TO1
Mercury2.16924
Venus1.78063
Earth1.50918
Mars1.04614
Jupiter2.26254
Saturn6.29281
Uranus15.3515
Neptune27.3333

Observations

368 total observations over interval: 1995 11 15.56481 – 2023 10 13.281406
These data are available for download (format description).

Date (UT) J2000 RA J2000 Dec Magn Location Ref
1995 11 15.56481 01 57 54.07 +10 51 00.8 19.4 V 327 – Peking Observatory, Xinglong Station MPS 386984
1995 11 15.59038 01 57 52.87 +10 50 56.9   327 – Peking Observatory, Xinglong Station MPS 386984
1995 11 15.61212 01 57 51.90 +10 50 53.8   327 – Peking Observatory, Xinglong Station MPS 386984
2000 11 28.29224 04 00 04.76 +21 30 35.5 20.0 V 691 – Steward Observatory, Kitt Peak-Spacewatch MPS 386984
2000 11 28.31659 04 00 03.31 +21 30 33.2 19.7 V 691 – Steward Observatory, Kitt Peak-Spacewatch MPS 386984
2000 11 28.34302 04 00 01.74 +21 30 30.7 19.7 V 691 – Steward Observatory, Kitt Peak-Spacewatch MPS 386984
2002 03 05.37971 10 55 12.77 +11 23 50.5 20.8 V 291 – LPL/Spacewatch II MPS 386984
2002 03 05.39979 10 55 11.74 +11 23 56.1 20.6 V 291 – LPL/Spacewatch II MPS 386984
2002 03 05.42012 10 55 10.68 +11 24 01.8 20.6 V 291 – LPL/Spacewatch II MPS 386984
2005 12 21.19029 05 57 42.99 +26 14 37.8 19.8 V 691 – Steward Observatory, Kitt Peak-Spacewatch MPS 159175
2005 12 21.20761 05 57 41.90 +26 14 38.8 19.7 V 691 – Steward Observatory, Kitt Peak-Spacewatch MPS 159175
2005 12 21.22493 05 57 40.82 +26 14 39.8 19.7 V 691 – Steward Observatory, Kitt Peak-Spacewatch MPS 159175
2005 12 31.10528 05 47 52.94 +26 20 04.8   691 – Steward Observatory, Kitt Peak-Spacewatch MPS 159175
2005 12 31.10772 05 47 52.82 +26 20 05.3   691 – Steward Observatory, Kitt Peak-Spacewatch MPS 159175
2005 12 31.12549 05 47 51.76 +26 20 05.4   691 – Steward Observatory, Kitt Peak-Spacewatch MPS 159176
2005 12 31.12793 05 47 51.64 +26 20 05.6   691 – Steward Observatory, Kitt Peak-Spacewatch MPS 159176
2005 12 31.14571 05 47 50.58 +26 20 06.2   691 – Steward Observatory, Kitt Peak-Spacewatch MPS 159176
2005 12 31.14814 05 47 50.46 +26 20 06.3   691 – Steward Observatory, Kitt Peak-Spacewatch MPS 159176
2007 02 25.35428 12 16 18.12 +02 08 33.3 21.1 V G96 – Mt. Lemmon Survey MPS 386984
2007 02 25.36227 12 16 17.83 +02 08 35.6 20.7 V G96 – Mt. Lemmon Survey MPS 386984
2007 02 25.37028 12 16 17.50 +02 08 37.7 20.6 V G96 – Mt. Lemmon Survey MPS 386984
2007 02 25.37837 12 16 17.22 +02 08 40.2 20.7 V G96 – Mt. Lemmon Survey MPS 386984
2007 03 15.19628 12 03 27.07 +03 31 44.9 20.9 V 691 – Steward Observatory, Kitt Peak-Spacewatch MPS 386984
2007 03 15.21390 12 03 26.21 +03 31 50.4 21.2 V 691 – Steward Observatory, Kitt Peak-Spacewatch MPS 386984
2007 03 15.23153 12 03 25.35 +03 31 55.4 21.0 V 691 – Steward Observatory, Kitt Peak-Spacewatch MPS 386984
2007 04 15.14811 11 40 34.68 +05 35 00.4 21.1 V 691 – Steward Observatory, Kitt Peak-Spacewatch MPS 386984
2007 04 15.16134 11 40 34.25 +05 35 01.9 21.3 V 691 – Steward Observatory, Kitt Peak-Spacewatch MPS 386984
2007 04 15.17458 11 40 33.74 +05 35 03.9 21.0 V 691 – Steward Observatory, Kitt Peak-Spacewatch MPS 386984
2009 08 15.38313 23 58 42.06 -04 44 24.5 20.4 V 703 – Catalina Sky Survey MPS 386984
2009 08 15.39112 23 58 41.84 -04 44 25.6 20.0 V 703 – Catalina Sky Survey MPS 386984
2009 08 15.39907 23 58 41.66 -04 44 25.9 19.9 V 703 – Catalina Sky Survey MPS 386984
2009 08 15.40706 23 58 41.34 -04 44 28.9 19.5 V 703 – Catalina Sky Survey MPS 386984
2009 08 17.28783 23 57 59.86 -04 50 19.0 20.4 V 691 – Steward Observatory, Kitt Peak-Spacewatch MPS 386984
2009 08 17.30565 23 57 59.42 -04 50 22.5 20.5 V 691 – Steward Observatory, Kitt Peak-Spacewatch MPS 386984
2009 08 17.32348 23 57 58.98 -04 50 25.9 20.1 V 691 – Steward Observatory, Kitt Peak-Spacewatch MPS 386984
2009 09 27.59506 23 29 06.90 -07 45 22.2 19.7 V E12 – Siding Spring Survey MPS 386984
2009 09 27.61962 23 29 05.67 -07 45 28.2 19.7 V E12 – Siding Spring Survey MPS 386984
2009 09 27.63200 23 29 05.02 -07 45 29.6 19.0 V E12 – Siding Spring Survey MPS 386984
2009 10 24.16826 23 15 16.02 -08 27 43.0 20.3 V G96 – Mt. Lemmon Survey MPS 300942
2009 10 24.17437 23 15 15.91 -08 27 42.6 20.4 V G96 – Mt. Lemmon Survey MPS 300942
2009 10 24.18668 23 15 15.69 -08 27 42.4 20.6 V G96 – Mt. Lemmon Survey MPS 300942
2009 10 25.08218 23 15 04.83 -08 27 06.4   691 – Steward Observatory, Kitt Peak-Spacewatch MPS 300942
2009 10 25.10350 23 15 04.55 -08 27 05.4   691 – Steward Observatory, Kitt Peak-Spacewatch MPS 300942
2009 10 25.12483 23 15 04.27 -08 27 04.3   691 – Steward Observatory, Kitt Peak-Spacewatch MPS 300942
2010 10 14.49157 07 45 02.73 +23 15 34.2 21.9 V G96 – Mt. Lemmon Survey MPS 386984
2010 10 14.49567 07 45 02.91 +23 15 33.6 21.8 V G96 – Mt. Lemmon Survey MPS 386984
2010 10 14.49975 07 45 03.16 +23 15 33.5 21.5 V G96 – Mt. Lemmon Survey MPS 386984
2010 10 14.50388 07 45 03.42 +23 15 33.6 21.6 V G96 – Mt. Lemmon Survey MPS 386984
2010 11 15.43803 08 06 33.48 +23 01 56.2 19.2 V G96 – Mt. Lemmon Survey MPS 386984
2010 11 15.44381 08 06 33.58 +23 01 56.2 19.8 V G96 – Mt. Lemmon Survey MPS 386984
2010 11 15.44967 08 06 33.62 +23 01 57.2 19.0 V G96 – Mt. Lemmon Survey MPS 386984
2010 11 15.45543 08 06 33.76 +23 01 56.8 19.1 V G96 – Mt. Lemmon Survey MPS 386984
2010 12 06.43619 08 06 30.67 +23 35 17.9 20.9 V G96 – Mt. Lemmon Survey MPS 386984
2010 12 06.44471 08 06 30.49 +23 35 19.3 20.7 V G96 – Mt. Lemmon Survey MPS 386984
2010 12 06.45332 08 06 30.31 +23 35 20.1 20.7 V G96 – Mt. Lemmon Survey MPS 386984
2010 12 06.46188 08 06 30.13 +23 35 21.5 20.4 V G96 – Mt. Lemmon Survey MPS 386984
2011 01 04.42190 07 47 05.17 +25 05 00.6 19.9 V G96 – Mt. Lemmon Survey MPS 367287
2011 01 04.42772 07 47 04.81 +25 05 01.6 20.1 V G96 – Mt. Lemmon Survey MPS 367287
2011 01 04.43355 07 47 04.48 +25 05 02.8 20.0 V G96 – Mt. Lemmon Survey MPS 367287
2011 01 04.43941 07 47 04.12 +25 05 03.7 19.8 V G96 – Mt. Lemmon Survey MPS 367287
2011 01 14.25429 07 37 29.53 +25 33 58.8 19.8 V G96 – Mt. Lemmon Survey MPS 367287
2011 01 14.26171 07 37 29.06 +25 34 00.2 19.8 V G96 – Mt. Lemmon Survey MPS 367287
2011 01 14.26917 07 37 28.63 +25 34 01.4 19.7 V G96 – Mt. Lemmon Survey MPS 367287
2011 01 14.27664 07 37 28.16 +25 34 02.6 19.7 V G96 – Mt. Lemmon Survey MPS 367287
2011 01 30.28496 07 22 41.626 +26 06 10.89 20.2 w F51 – Pan-STARRS 1, Haleakala MPS 386984
2011 01 30.31463 07 22 40.117 +26 06 13.45 20.4 w F51 – Pan-STARRS 1, Haleakala MPS 386984
2011 01 30.32895 07 22 39.393 +26 06 14.66 20.6 w F51 – Pan-STARRS 1, Haleakala MPS 386984
2012 02 26.41442 13 20 41.33 -05 29 36.9 21.3 V 691 – Steward Observatory, Kitt Peak-Spacewatch MPS 414296
2012 02 26.43236 13 20 40.97 -05 29 35.0 21.1 V 691 – Steward Observatory, Kitt Peak-Spacewatch MPS 414296
2012 02 26.45032 13 20 40.59 -05 29 32.6 21.1 V 691 – Steward Observatory, Kitt Peak-Spacewatch MPS 414296
2012 03 24.37000 13 05 25.00 -03 56 56.4 20.7 V 703 – Catalina Sky Survey MPS 420243
2012 03 24.38645 13 05 24.28 -03 56 51.1 20.5 V 703 – Catalina Sky Survey MPS 420243
2012 03 24.39466 13 05 23.82 -03 56 48.1 19.5 V 703 – Catalina Sky Survey MPS 420243
2012 04 12.35910 12 50 18.954 -02 33 40.50 20.8 w F51 – Pan-STARRS 1, Haleakala MPS 420779
2012 04 12.37310 12 50 18.275 -02 33 37.08 20.6 w F51 – Pan-STARRS 1, Haleakala MPS 420779
2012 04 12.38707 12 50 17.590 -02 33 33.62 20.5 w F51 – Pan-STARRS 1, Haleakala MPS 420779
2012 04 15.37788 12 47 58.775 -02 21 29.70 21.3 g F51 – Pan-STARRS 1, Haleakala MPS 421821
2012 04 15.38949 12 47 58.217 -02 21 26.95 21.4 g F51 – Pan-STARRS 1, Haleakala MPS 421821
2014 09 23.46262 01 34 32.735 +06 43 09.40 20.1 w F51 – Pan-STARRS 1, Haleakala MPS 536300
2014 09 23.47500 01 34 32.249 +06 43 06.98 19.9 w F51 – Pan-STARRS 1, Haleakala MPS 536300
2014 09 23.49989 01 34 31.273 +06 43 02.40 19.7 w F51 – Pan-STARRS 1, Haleakala MPS 536300
2014 09 24.27816 01 34 02.06 +06 40 33.9 19.7 V 691 – Steward Observatory, Kitt Peak-Spacewatch MPS 536300
2014 09 24.29850 01 34 01.26 +06 40 30.0 19.8 V 691 – Steward Observatory, Kitt Peak-Spacewatch MPS 536300
2014 09 24.31883 01 34 00.43 +06 40 26.1 20.0 V 691 – Steward Observatory, Kitt Peak-Spacewatch MPS 536300
2014 09 25.38068 01 33 19.05 +06 36 59.8 19.8 V 703 – Catalina Sky Survey MPS 536300
2014 09 25.42897 01 33 17.06 +06 36 50.3 19.2 V 703 – Catalina Sky Survey MPS 536300
2014 10 01.35197 01 29 05.17 +06 16 08.1 19.2 V 703 – Catalina Sky Survey MPS 538697
2014 10 01.35952 01 29 04.77 +06 16 06.5 19.1 V 703 – Catalina Sky Survey MPS 538697
